Regional Weather Roundup
Issued by NWS

Home | Current Version | Previous Version | Graphics & Text | Print | Product List | Glossary On
Versions: 1 2 3 4 5 6 7 8 9 10 11 12 13 14 15 16 17 18 19 20 21 22 23 24 25 26 27
000
ASUS45 KBOU 050107
RWRCO

WEATHER ROUNDUP FOR COLORADO
NATIONAL WEATHER SERVICE DENVER/BOULDER CO
700 PM MDT WED MAY 04 2016

NOTE: "FAIR" INDICATES FEW OR NO CLOUDS BELOW 12000 FEET WITH NO
SIGNIFICANT WEATHER AND/OR OBSTRUCTIONS TO VISIBILITY.

COZ001>005-013-030-031-050200-
...NORTHWEST COLORADO...

CITY           SKY/WX    TMP DP  RH WIND       PRES   REMARKS
CRAIG          FAIR      70  36  28 W5        30.12F
HAYDEN         FAIR      68  27  21 N5        30.15F
MEEKER         FAIR      70  29  21 SW6       30.13F
MOUNT WERNER   NOT AVBL
STEAMBOAT SPGS FAIR      68  24  19 NW6       30.17F
WALDEN         FAIR      61  12  15 W9        30.27S
$$

COZ006>008-011-050200-
...WEST CENTRAL VALLEYS...

CITY           SKY/WX    TMP DP  RH WIND       PRES   REMARKS
GRAND JUNCTION FAIR      75  30  19 NW6       30.05F
MONTROSE       FAIR      75  25  15 E5        30.12F
EAGLE          FAIR      72  21  15 W10G16    30.16F
RIFLE          FAIR      74  28  18 W8        30.08F
DELTA          NOT AVBL
NUCLA          NOT AVBL
$$

COZ017>023-064>068-050200-
...SOUTHWEST COLORADO...

CITY           SKY/WX    TMP DP  RH WIND       PRES   REMARKS
DURANGO        FAIR      68  27  21 NE3       30.21F
CORTEZ         FAIR      73  20  13 S6        30.14F
PAGOSA SPRINGS FAIR      66  14  13 SW6       30.28S
TELLURIDE      FAIR      60  22  23 SE5       30.34S
WOLF CREEK PAS FAIR      41  19  42 SW16      30.53S
$$

COZ009-010-012-014-032>034-037-058>063-050200-
...CENTRAL COLORADO...

CITY           SKY/WX    TMP DP  RH WIND       PRES   REMARKS
ASPEN          FAIR      65  16  15 SW5       30.22F
BUENA VISTA    FAIR      63  22  21 CALM      30.24R
COPPER MTN     NOT AVBL
BERTHOUD PASS  FAIR      34  25  69 MISG      30.51F
COTTONWOOD PAS FAIR      59   3  10 CALM      30.36F
GUNNISON       FAIR      66  21  18 W7        30.24F
KREMMLING      FAIR      66  16  14 NW3       30.21S
LEADVILLE      FAIR      56  14  19 NW9       30.35S
MONARCH PASS   FAIR      45  21  39 S10G23    30.59S
SALIDA         FAIR      67  23  18 SW10G16   30.29S
SUNLIGHT       FAIR      54  23  30 CALM      30.45F
WILKERSON PASS MOCLDY    46  21  36 CALM      30.48F
$$

COZ069>075-050200-
...SAN LUIS VALLEY/SANGRE DE CRISTO MOUNTAINS...

CITY           SKY/WX    TMP DP  RH WIND       PRES   REMARKS
ALAMOSA        FAIR      67  22  18 SW13      30.23F
LA VETA PASS   FAIR      52  10  19 S5        30.40F
SAGUACHE       FAIR      63  30  29 SW8       30.27S
$$

COZ035-036-038>040-050200-
...NORTHERN COLORADO FRONT RANGE...

CITY           SKY/WX    TMP DP  RH WIND       PRES   REMARKS
DENVER INTL AP FAIR      68  35  29 E9        30.13F
DMNS CITY PARK   N/A     70  29  21 E8        30.12S
AURORA         FAIR      68  35  29 E9        30.15F
FRONT RANGE AP NOT AVBL
ERIE MUNI ARPT FAIR      70  32  24 E5        30.12F
BOULDER MUN AP FAIR      70  32  24 E3        30.13S
CENTENNIAL     FAIR      68  30  24 E13       30.15F
BROOMFIELD     PTCLDY    68  32  26 E6        30.15F
FORT COLLINS   FAIR      70  39  32 S8        30.10S
LONGMONT       FAIR      73  35  24 E5        30.14S
$$

COZ041-046-047-076>085-087-088-050200-
...PIKES PEAK/PALMER DIVIDE AND SOUTHERN FOOTHILLS...

CITY           SKY/WX    TMP DP  RH WIND       PRES   REMARKS
COLO. SPRINGS  FAIR      69  25  19 S13       30.19F
A. F. ACADEMY  FAIR      66  30  26 S6        30.19F
SCHRIEVER AFB  NOT AVBL
ELLICOTT       FAIR     N/A N/A N/A S12       30.18F
FALCON         NOT AVBL
FORT CARSON    FAIR      70  32  24 SE8       30.16F
LIMON          FAIR      67  37  33 E8        30.15F
MONUMENT HILL  FAIR      61  32  33 SE6       30.24S
TRINIDAD       FAIR      71  24  17 SE7       30.16F
$$

COZ042>045-048>051-090-091-050200-
...NORTHEAST COLORADO...

CITY           SKY/WX    TMP DP  RH WIND       PRES   REMARKS
GREELEY ARPT   FAIR      72  37  28 SE7       30.11S
AKRON          FAIR      68  41  37 E7        30.12F
BURLINGTON     FAIR      70  41  34 E9        30.12F
WRAY           NOT AVBL
STERLING       FAIR      72  41  33 SE6       30.08S
HOLYOKE        NOT AVBL
FORT MORGAN    FAIR      71  37  28 E5        30.11F
$$

COZ086-089-092>099-050200-
...SOUTHEAST COLORADO...

CITY           SKY/WX    TMP DP  RH WIND       PRES   REMARKS
PUEBLO         FAIR      76  31  19 SE16      30.09F
LA JUNTA       FAIR      76  32  20 SE8       30.09F
LAMAR          FAIR      76  39  26 S7        30.06F
SPRINGFIELD      N/A     68  41  37 E8        30.12F
$$




USA.gov is the U.S. government's official web portal to all federal, state and local government web resources and services.